{"data":{"norad_id":44314,"intl_designator":"2019-032E","name":"TIANQI-3","alt_names":[],"object_type":"PAYLOAD","status":"ACTIVE","operator":null,"country":"PRC","launch_date":"2019-06-05","launch_site_code":"YSLA","launch_vehicle":null,"mission":null,"orbit_class":"UNKNOWN","rcs_meters":null,"size_class":null,"mass_kg":null,"dimensions":null,"purposes":[],"wikipedia_slug":null,"has_3d_model":false,"image_url":null,"decayed_at":null,"tle_current":{"epoch":"2026-09-20T03:10:33.927168Z","epoch_age_seconds":90157,"freshness":"FRESH","line1":"1 44314U 19032E   26263.13233712  .00014759  00000+0  35212-3 0  9993","line2":"2 44314  44.9993 171.4972 0009866 173.2454 186.8569 15.41447450402714","mean_motion":15.4144745,"eccentricity":0.0009866,"inclination_deg":44.9993,"raan_deg":171.4972,"arg_perigee_deg":173.2454,"mean_anomaly_deg":186.8569,"bstar":0.00035212,"rev_number":40271,"period_min":93.418689038021,"perigee_km":435.10799394282,"apogee_km":448.56516581063,"semimajor_km":6819.9735798767,"source":"CELESTRAK","updated_at":"2026-09-20T09:00:14.458184Z"}}}